Weather History for Santa Monica, CA

Change the Weather History Date:

Sunday, March 23, 2014

  Actual Average Record
Temperature  
Mean Temperature 60 °F -  
Max Temperature 66 °F 69 °F 85 °F (1953)
Min Temperature 55 °F 51 °F 39 °F (1935)
Degree Days  
Heating Degree Days 4    
Growing Degree Days 10 (Base 50)    
Moisture  
Dew Point 50 °F    
Average Humidity 69    
Maximum Humidity 77    
Minimum Humidity 56    
Precipitation  
Precipitation 0.00 in - - ()
Sea Level Pressure  
Sea Level Pressure 30.09 in    
Wind  
Wind Speed 3 mph (SW)    
Max Wind Speed 12 mph    
Max Gust Speed 20 mph    
Visibility 10 miles    
Events      
Averages and records for this station are not official NWS values.
T = Trace of Precipitation, MM = Missing Value Source: NWS Daily Summary

Daily Weather History Graph

Daily Weather History Graph

Search for Another Location

Airport:

Trip Planner

Search our weather history database for the weather conditions in past years. The results will help you decide how hot, cold, wet, or windy it might be!

Date:

Astronomy

Mar. 23, 2014 Rise Set
Actual Time 6:53 AM PDT 7:07 PM PDT
Civil Twilight 6:28 AM PDT 7:32 PM PDT
Nautical Twilight 5:59 AM PDT 8:02 PM PDT
Astronomical Twilight 5:29 AM PDT 8:31 PM PDT
Moon 1:16 AM PDT (3/23) 11:52 AM PDT (3/23)
Length of Visible Light 13h 04m
Length of Day
12h 14m
Waning Gibbous, 53% of the Moon is Illuminated
Mar 23
Waning Gibbous
Mar 23
Last Quarter
Mar 30
New
Apr 7
First Quarter
Apr 15
Full

Hourly Weather History & Observations

Time (PDT) Temp. Dew Point Humidity Pressure Visibility Wind Dir Wind Speed Gust Speed Precip Events Conditions
12:51 AM 57.9 °F 48.9 °F 72% 30.11 in 10.0 mi Calm Calm - N/A   Clear
1:51 AM 57.0 °F 48.0 °F 72% 30.11 in 10.0 mi Calm Calm - N/A   Clear
2:51 AM 57.0 °F 48.0 °F 72% 30.10 in 10.0 mi Calm Calm - N/A   Clear
3:51 AM 55.9 °F 48.0 °F 75% 30.08 in 10.0 mi Calm Calm - N/A   Clear
4:51 AM 55.9 °F 46.9 °F 72% 30.09 in 10.0 mi Calm Calm - N/A   Clear
5:51 AM 55.0 °F 46.9 °F 74% 30.09 in 10.0 mi North 3.5 mph - N/A   Clear
6:51 AM 55.0 °F 46.9 °F 74% 30.11 in 10.0 mi Calm Calm - N/A   Mostly Cloudy
7:51 AM 55.0 °F 48.0 °F 77% 30.13 in 10.0 mi Calm Calm - N/A   Mostly Cloudy
8:11 AM 57.2 °F 48.2 °F 72% 30.13 in 10.0 mi Calm Calm - N/A   Scattered Clouds
8:51 AM 60.1 °F 50.0 °F 69% 30.14 in 10.0 mi Calm Calm - N/A   Partly Cloudy
9:51 AM 62.1 °F 50.0 °F 65% 30.15 in 10.0 mi SSW 5.8 mph - N/A   Scattered Clouds
10:17 AM 62.6 °F 51.8 °F 68% 30.15 in 10.0 mi South 5.8 mph - N/A   Mostly Cloudy
10:51 AM 64.0 °F 50.0 °F 60% 30.15 in 10.0 mi Variable 5.8 mph - N/A   Mostly Cloudy
11:51 AM 64.9 °F 51.1 °F 61% 30.14 in 10.0 mi SSW 5.8 mph - N/A   Mostly Cloudy
12:29 PM 66.2 °F 50.0 °F 56% 30.12 in 10.0 mi Variable 5.8 mph - N/A   Scattered Clouds
12:51 PM 66.0 °F 51.1 °F 59% 30.12 in 10.0 mi Variable 6.9 mph - N/A   Clear
1:51 PM 66.0 °F 51.1 °F 59% 30.09 in 10.0 mi SW 9.2 mph - N/A   Clear
2:51 PM 64.9 °F 51.1 °F 61% 30.06 in 10.0 mi WSW 9.2 mph - N/A   Clear
3:51 PM 64.0 °F 52.0 °F 65% 30.04 in 10.0 mi WSW 9.2 mph 17.3 mph N/A   Partly Cloudy
4:51 PM 63.0 °F 52.0 °F 67% 30.03 in 10.0 mi WSW 11.5 mph 19.6 mph N/A   Clear
5:43 PM 62.6 °F 53.6 °F 72% 30.04 in 10.0 mi WSW 10.4 mph 16.1 mph N/A   Mostly Cloudy
5:51 PM 62.1 °F 53.1 °F 72% 30.04 in 10.0 mi WSW 11.5 mph 19.6 mph N/A   Mostly Cloudy
6:51 PM 61.0 °F 53.1 °F 75% 30.04 in 10.0 mi WSW 8.1 mph - N/A   Overcast
7:51 PM 61.0 °F 53.1 °F 75% 30.05 in 10.0 mi WSW 5.8 mph - N/A   Overcast
8:51 PM 61.0 °F 53.1 °F 75% 30.06 in 10.0 mi WSW 6.9 mph - N/A   Overcast
9:51 PM 61.0 °F 52.0 °F 72% 30.08 in 10.0 mi WSW 3.5 mph - N/A   Overcast
10:51 PM 61.0 °F 52.0 °F 72% 30.09 in 10.0 mi South 3.5 mph - N/A   Overcast
11:51 PM 61.0 °F 52.0 °F 72% 30.09 in 10.0 mi Calm Calm - N/A   Overcast